Watsonville, CA

12:51 PM PST on January 18, 2018 (GMT -0800)
Watsonville Municipal

Weather History for KWVI - November, 2013

Change the Weather History Date:

Friday, November 15, 2013

  Actual Average Record
Temperature  
Mean Temperature 54 °F 55 °F  
Max Temperature 62 °F 66 °F 88 °F (2008)
Min Temperature 45 °F 43 °F 37 °F (2009)
Degree Days  
Heating Degree Days 11    
Month to date heating degree days 122  
Since 1 July heating degree days 496  
Cooling Degree Days 0    
Month to date cooling degree days 0  
Year to date cooling degree days 128  
Growing Degree Days 2 (Base 50)    
Moisture  
Dew Point 46 °F    
Average Humidity 72    
Maximum Humidity 93    
Minimum Humidity 51    
Precipitation  
Precipitation 0.00 in - 1.84 in (1972)
Month to date precipitation 0.00  
Year to date precipitation 2.76  
Since 1 July precipitation 0.37  
Sea Level Pressure  
Sea Level Pressure 29.83 in    
Wind  
Wind Speed 3 mph (NNW)    
Max Wind Speed 14 mph    
Max Gust Speed 37 mph    
Visibility 9 miles    
Events      
T = Trace of Precipitation, MM = Missing Value Source: NWS Daily Summary

Daily Weather History Graph

Daily Weather History Graph

Search for Another Location

Airport or City:

Trip Planner

Search our weather history database for the weather conditions in past years. The results will help you decide how hot, cold, wet, or windy it might be!

Date:

Astronomy

Nov. 15, 2013 Rise Set
Actual Time 6:45 AM PST 4:57 PM PST
Civil Twilight 6:18 AM PST 5:25 PM PST
Nautical Twilight 5:46 AM PST 5:56 PM PST
Astronomical Twilight 5:16 AM PST 6:27 PM PST
Moon 3:55 PM PST (11/15) 4:50 AM PST (11/15)
Length of Visible Light 11h 06m
Length of Day
10h 11m
Waxing Gibbous, 97% of the Moon is Illuminated
Nov 15
Waxing Gibbous
Nov 17
Full
Nov 25
Last Quarter
Dec 2
New
Dec 9
First Quarter

Hourly Weather History & Observations

Time (PST) Temp. Windchill Dew Point Humidity Pressure Visibility Wind Dir Wind Speed Gust Speed Precip Events Conditions
12:10 AM 51.8 °F - 48.2 °F 88% 29.92 in 9.0 mi Calm Calm - N/A   Overcast
12:53 AM 52.0 °F - 48.9 °F 89% 29.91 in 7.0 mi Calm Calm - N/A   Overcast
1:53 AM 51.1 °F - 48.0 °F 89% 29.89 in 7.0 mi Calm Calm - N/A   Overcast
2:07 AM 51.8 °F - 48.2 °F 88% 29.89 in 7.0 mi Calm Calm - N/A   Overcast
2:53 AM 48.9 °F - 46.9 °F 93% 29.87 in 6.0 mi Calm Calm - N/A   Scattered Clouds
3:23 AM 48.2 °F - 46.4 °F 93% 29.86 in 6.0 mi Calm Calm - N/A   Mostly Cloudy
3:50 AM 48.2 °F - 46.4 °F 93% 29.86 in 6.0 mi Calm Calm - N/A   Overcast
3:53 AM 48.0 °F - 46.9 °F 96% 29.86 in 6.0 mi Calm Calm - N/A   Overcast
4:12 AM 50.0 °F - 48.2 °F 94% 29.86 in 8.0 mi Calm Calm - N/A   Overcast
4:53 AM 50.0 °F - 48.0 °F 93% 29.86 in 9.0 mi Calm Calm - N/A   Overcast
5:53 AM 48.9 °F - 46.9 °F 93% 29.86 in 9.0 mi Calm Calm - N/A   Overcast
6:53 AM 48.9 °F - 46.9 °F 93% 29.86 in 8.0 mi Calm Calm - N/A   Mostly Cloudy
7:53 AM 50.0 °F - 46.9 °F 89% 29.86 in 7.0 mi Calm Calm - N/A   Overcast
8:53 AM 53.1 °F - 46.9 °F 80% 29.86 in 10.0 mi Calm Calm - N/A   Overcast
9:13 AM 53.6 °F - 46.4 °F 77% 29.85 in 10.0 mi Calm Calm - N/A   Mostly Cloudy
9:28 AM 53.6 °F - 46.4 °F 77% 29.85 in 10.0 mi SE 3.5 mph - N/A   Scattered Clouds
9:53 AM 54.0 °F - 46.0 °F 75% 29.85 in 10.0 mi Calm Calm - N/A   Clear
10:53 AM 57.0 °F - 46.0 °F 67% 29.83 in 10.0 mi Calm Calm - N/A   Clear
11:53 AM 61.0 °F - 45.0 °F 56% 29.80 in 10.0 mi South 4.6 mph - N/A   Clear
12:53 PM 61.0 °F - 45.0 °F 56% 29.78 in 10.0 mi SW 6.9 mph - N/A   Clear
1:53 PM 60.1 °F - 46.0 °F 60% 29.77 in 10.0 mi SW 6.9 mph - N/A   Clear
2:53 PM 59.0 °F - 44.1 °F 58% 29.76 in 10.0 mi SW 8.1 mph - N/A   Clear
3:53 PM 60.1 °F - 42.1 °F 51% 29.75 in 10.0 mi ESE 5.8 mph - N/A   Clear
4:53 PM 55.0 °F - 46.9 °F 74% 29.76 in 10.0 mi ENE 5.8 mph - N/A   Clear
5:53 PM 53.1 °F - 46.0 °F 77% 29.78 in 10.0 mi ENE 5.8 mph - N/A   Clear
6:53 PM 51.1 °F - 45.0 °F 80% 29.80 in 10.0 mi NNE 3.5 mph - N/A   Clear
7:53 PM 50.0 °F - 46.0 °F 86% 29.80 in 10.0 mi North 3.5 mph - N/A   Clear
8:53 PM 48.0 °F - 44.1 °F 86% 29.82 in 9.0 mi NNW 3.5 mph - N/A   Clear
9:53 PM 46.0 °F 43.1 °F 43.0 °F 89% 29.82 in 10.0 mi NNW 5.8 mph - N/A   Clear
10:53 PM 45.0 °F 42.6 °F 42.1 °F 90% 29.81 in 10.0 mi NW 4.6 mph - N/A   Mostly Cloudy
11:23 PM 44.6 °F 42.2 °F 42.8 °F 93% 29.82 in 10.0 mi NW 4.6 mph - N/A   Scattered Clouds
11:48 PM 44.6 °F - 41.0 °F 87% 29.81 in 10.0 mi Calm Calm - N/A   Scattered Clouds
11:53 PM 45.0 °F 43.5 °F 41.0 °F 86% 29.81 in 10.0 mi North 3.5 mph - N/A   Mostly Cloudy